| time (UTC) | temp F | wind direction | speed MPH | gust MPH | rain 1hr in | rain 24hr in | rain mn in | humidity % | barometer mb |
| 20260504020504 | 59 | 272 | 3.0 | 9.0 | 0.00 | 0.00 | 0.00 | 70 | 1035.4 |
| 20260504020005 | 59 | 274 | 3.0 | 9.0 | 0.00 | 0.00 | 0.00 | 70 | 1035.4 |
| 20260504015504 | 59 | 284 | 4.0 | 9.0 | 0.00 | 0.00 | 0.00 | 70 | 1035.4 |
| 20260504015004 | 59 | 292 | 3.0 | 9.0 | 0.00 | 0.00 | 0.00 | 69 | 1035.4 |
| 20260504014720 | 59 | 293 | 3.0 | 8.0 | 0.00 | 0.00 | 0.00 | 69 | 1035.4 |
| 20260504014004 | 59 | 282 | 3.0 | 8.0 | 0.00 | 0.00 | 0.00 | 69 | 1035.4 |
| 20260504013504 | 59 | 275 | 3.0 | 9.0 | 0.00 | 0.00 | 0.00 | 69 | 1035.4 |
| 20260504013005 | 59 | 275 | 2.0 | 9.0 | 0.00 | 0.00 | 0.00 | 68 | 1035.4 |
| 20260504012504 | 59 | 286 | 2.0 | 9.0 | 0.00 | 0.00 | 0.00 | 69 | 1035.5 |
| 20260504012004 | 59 | 288 | 2.0 | 9.0 | 0.00 | 0.00 | 0.00 | 68 | 1035.5 |
| 20260504011504 | 59 | 277 | 3.0 | 7.0 | 0.00 | 0.00 | 0.00 | 68 | 1035.6 |
| 20260504011004 | 59 | 273 | 4.0 | 9.0 | 0.00 | 0.00 | 0.00 | 68 | 1035.6 |
| 20260504010504 | 59 | 280 | 4.0 | 10.0 | 0.00 | 0.00 | 0.00 | 68 | 1035.7 |
| 20260504010004 | 59 | 284 | 3.0 | 10.0 | 0.00 | 0.00 | 0.00 | 68 | 1035.7 |
| 20260504005717 | 59 | 280 | 2.0 | 10.0 | 0.00 | 0.00 | 0.00 | 68 | 1035.8 |
| 20260504005005 | 59 | 285 | 2.0 | 8.0 | 0.00 | 0.00 | 0.00 | 68 | 1035.8 |
| 20260504004504 | 59 | 278 | 3.0 | 10.0 | 0.00 | 0.00 | 0.00 | 68 | 1035.9 |
| 20260504004004 | 59 | 278 | 3.0 | 10.0 | 0.00 | 0.00 | 0.00 | 67 | 1035.9 |
| 20260504003504 | 59 | 279 | 3.0 | 8.0 | 0.00 | 0.00 | 0.00 | 69 | 1036.0 |
| 20260504003004 | 59 | 280 | 3.0 | 7.0 | 0.00 | 0.00 | 0.00 | 67 | 1036.0 |
| 20260504002503 | 59 | 287 | 2.0 | 6.0 | 0.00 | 0.00 | 0.00 | 68 | 1036.1 |
| 20260504002004 | 59 | 281 | 2.0 | 6.0 | 0.00 | 0.00 | 0.00 | 69 | 1036.2 |
| 20260504001504 | 59 | 283 | 1.0 | 7.0 | 0.00 | 0.00 | 0.00 | 70 | 1036.2 |
| 20260504001004 | 58 | 290 | 2.0 | 7.0 | 0.00 | 0.00 | 0.00 | 70 | 1036.3 |
| 20260504000504 | 58 | 285 | 3.0 | 8.0 | 0.00 | 0.00 | 0.00 | 70 | 1036.4 |
| 20260504000004 | 58 | 278 | 3.0 | 8.0 | 0.00 | 0.00 | 0.00 | 70 | 1036.4 |
| 20260503235504 | 58 | 276 | 2.0 | 6.0 | 0.00 | 0.00 | 0.00 | 70 | 1036.4 |
| 20260503235004 | 58 | 276 | 2.0 | 9.0 | 0.00 | 0.00 | 0.00 | 70 | 1036.4 |
| 20260503234504 | 58 | 275 | 3.0 | 9.0 | 0.00 | 0.00 | 0.00 | 69 | 1036.4 |
| 20260503234004 | 59 | 285 | 2.0 | 8.0 | 0.00 | 0.00 | 0.00 | 69 | 1036.5 |
| 20260503233504 | 59 | 327 | 1.0 | 6.0 | 0.00 | 0.00 | 0.00 | 69 | 1036.5 |
| 20260503233004 | 59 | 309 | 1.0 | 6.0 | 0.00 | 0.00 | 0.00 | 70 | 1036.5 |
| 20260503232504 | 58 | 274 | 2.0 | 9.0 | 0.00 | 0.00 | 0.00 | 70 | 1036.6 |
| 20260503232004 | 58 | 275 | 3.0 | 9.0 | 0.00 | 0.00 | 0.00 | 71 | 1036.6 |
| 20260503231505 | 58 | 282 | 3.0 | 9.0 | 0.00 | 0.00 | 0.00 | 71 | 1036.6 |
| 20260503231004 | 58 | 283 | 3.0 | 8.0 | 0.00 | 0.00 | 0.00 | 70 | 1036.6 |
| 20260503230504 | 58 | 275 | 2.0 | 8.0 | 0.00 | 0.00 | 0.00 | 70 | 1036.6 |
| 20260503230004 | 58 | 278 | 2.0 | 7.0 | 0.00 | 0.00 | 0.00 | 70 | 1036.6 |
| 20260503225504 | 58 | 282 | 2.0 | 7.0 | 0.00 | 0.00 | 0.00 | 70 | 1036.6 |
| 20260503225218 | 58 | 280 | 2.0 | 7.0 | 0.00 | 0.00 | 0.00 | 71 | 1036.6 |
| 20260503224719 | 58 | 279 | 2.0 | 8.0 | 0.00 | 0.00 | 0.00 | 71 | 1036.6 |
| 20260503224004 | 58 | 285 | 2.0 | 8.0 | 0.00 | 0.00 | 0.00 | 70 | 1036.6 |
| 20260503223504 | 58 | 282 | 2.0 | 6.0 | 0.00 | 0.00 | 0.00 | 71 | 1036.6 |
| 20260503223217 | 58 | 282 | 1.0 | 5.0 | 0.00 | 0.00 | 0.00 | 73 | 1036.6 |
| 20260503222504 | 58 | 308 | 2.0 | 5.0 | 0.00 | 0.00 | 0.00 | 71 | 1036.6 |
| 20260503222004 | 58 | 311 | 1.0 | 5.0 | 0.00 | 0.00 | 0.00 | 71 | 1036.6 |
| 20260503221504 | 58 | 298 | 1.0 | 4.0 | 0.00 | 0.00 | 0.00 | 72 | 1036.6 |
| 20260503221217 | 58 | 307 | 1.0 | 4.0 | 0.00 | 0.00 | 0.00 | 72 | 1036.6 |
| 20260503220504 | 57 | 290 | 2.0 | 7.0 | 0.00 | 0.00 | 0.00 | 73 | 1036.6 |
| 20260503220005 | 57 | 280 | 2.0 | 7.0 | 0.00 | 0.00 | 0.00 | 75 | 1036.6 |
| 20260503215504 | 57 | 296 | 1.0 | 3.0 | 0.00 | 0.00 | 0.00 | 75 | 1036.6 |
| 20260503215004 | 57 | 318 | 1.0 | 3.0 | 0.00 | 0.00 | 0.00 | 75 | 1036.6 |
| 20260503214505 | 57 | 303 | 1.0 | 3.0 | 0.00 | 0.00 | 0.00 | 76 | 1036.6 |
| 20260503214217 | 57 | 300 | 1.0 | 4.0 | 0.00 | 0.00 | 0.00 | 76 | 1036.6 |
| 20260503213504 | 56 | 331 | 1.0 | 4.0 | 0.00 | 0.00 | 0.00 | 77 | 1036.5 |
| 20260503213005 | 56 | 331 | 1.0 | 4.0 | 0.00 | 0.00 | 0.00 | 77 | 1036.6 |
| 20260503212504 | 56 | 326 | 1.0 | 4.0 | 0.00 | 0.00 | 0.00 | 78 | 1036.6 |
| 20260503212219 | 56 | 323 | 1.0 | 4.0 | 0.00 | 0.00 | 0.00 | 78 | 1036.6 |
| 20260503211504 | 56 | 332 | 2.0 | 5.0 | 0.00 | 0.00 | 0.00 | 78 | 1036.5 |
| 20260503211004 | 56 | 330 | 1.0 | 4.0 | 0.00 | 0.00 | 0.00 | 79 | 1036.5 |
| 20260503210504 | 55 | 349 | 0.0 | 4.0 | 0.00 | 0.00 | 0.00 | 80 | 1036.6 |
| 20260503210005 | 55 | 344 | 1.0 | 4.0 | 0.00 | 0.00 | 0.00 | 81 | 1036.5 |
| 20260503205504 | 55 | 324 | 1.0 | 4.0 | 0.00 | 0.00 | 0.00 | 81 | 1036.5 |
| 20260503205004 | 55 | 322 | 1.0 | 4.0 | 0.00 | 0.00 | 0.00 | 81 | 1036.5 |
| 20260503204504 | 54 | 331 | 1.0 | 4.0 | 0.00 | 0.00 | 0.00 | 81 | 1036.5 |
| 20260503204004 | 54 | 329 | 1.0 | 4.0 | 0.00 | 0.00 | 0.00 | 82 | 1036.5 |
| 20260503203504 | 54 | 349 | 1.0 | 4.0 | 0.00 | 0.00 | 0.00 | 82 | 1036.5 |
| 20260503203004 | 54 | 349 | 1.0 | 4.0 | 0.00 | 0.00 | 0.00 | 82 | 1036.4 |
| 20260503202718 | 54 | 340 | 1.0 | 4.0 | 0.00 | 0.00 | 0.00 | 83 | 1036.4 |
| 20260503202004 | 54 | 347 | 1.0 | 5.0 | 0.00 | 0.00 | 0.00 | 83 | 1036.4 |
| 20260503201504 | 54 | 347 | 1.0 | 5.0 | 0.00 | 0.00 | 0.00 | 84 | 1036.3 |
| 20260503201004 | 53 | 336 | 1.0 | 4.0 | 0.00 | 0.00 | 0.00 | 84 | 1036.3 |
| 20260503200504 | 53 | 353 | 1.0 | 5.0 | 0.00 | 0.00 | 0.00 | 85 | 1036.3 |
| 20260503200004 | 53 | 357 | 1.0 | 5.0 | 0.00 | 0.00 | 0.00 | 85 | 1036.2 |
| 20260503195504 | 53 | 326 | 0.0 | 2.0 | 0.00 | 0.00 | 0.00 | 85 | 1036.2 |
| 20260503195004 | 53 | 322 | 1.0 | 2.0 | 0.00 | 0.00 | 0.00 | 86 | 1036.2 |
| 20260503194504 | 53 | 326 | 0.0 | 2.0 | 0.00 | 0.00 | 0.00 | 86 | 1036.2 |
| 20260503194004 | 53 | 0 | 0.0 | 2.0 | 0.00 | 0.00 | 0.00 | 86 | 1036.2 |
| 20260503193503 | 53 | 0 | 0.0 | 1.0 | 0.00 | 0.00 | 0.00 | 86 | 1036.1 |
| 20260503193004 | 53 | 314 | 0.0 | 3.0 | 0.00 | 0.00 | 0.00 | 86 | 1036.1 |
| 20260503192504 | 53 | 333 | 0.0 | 4.0 | 0.00 | 0.00 | 0.00 | 86 | 1036.1 |
| 20260503192004 | 53 | 341 | 0.0 | 4.0 | 0.00 | 0.00 | 0.00 | 86 | 1036.1 |
| 20260503191504 | 53 | 344 | 1.0 | 4.0 | 0.00 | 0.00 | 0.00 | 86 | 1036.1 |
| 20260503191004 | 53 | 339 | 1.0 | 4.0 | 0.00 | 0.00 | 0.00 | 86 | 1036.1 |
| 20260503190504 | 53 | 340 | 1.0 | 4.0 | 0.00 | 0.00 | 0.00 | 86 | 1036.1 |
| 20260503190218 | 53 | 336 | 1.0 | 3.0 | 0.00 | 0.00 | 0.00 | 86 | 1036.1 |
| 20260503185719 | 53 | 322 | 1.0 | 2.0 | 0.00 | 0.00 | 0.00 | 86 | 1036.1 |
| 20260503185004 | 53 | 332 | 1.0 | 4.0 | 0.00 | 0.00 | 0.00 | 86 | 1036.0 |
| 20260503184504 | 53 | 338 | 1.0 | 4.0 | 0.00 | 0.00 | 0.00 | 86 | 1036.0 |
| 20260503184004 | 53 | 330 | 1.0 | 4.0 | 0.00 | 0.00 | 0.00 | 85 | 1036.0 |
| 20260503183719 | 53 | 327 | 0.0 | 4.0 | 0.00 | 0.00 | 0.00 | 86 | 1036.0 |
| 20260503183004 | 53 | 331 | 1.0 | 5.0 | 0.00 | 0.00 | 0.00 | 85 | 1036.0 |
| 20260503182505 | 53 | 335 | 1.0 | 6.0 | 0.00 | 0.00 | 0.00 | 85 | 1036.0 |
| 20260503182005 | 53 | 341 | 1.0 | 6.0 | 0.00 | 0.00 | 0.00 | 85 | 1036.0 |
| 20260503181505 | 53 | 341 | 1.0 | 5.0 | 0.00 | 0.00 | 0.00 | 85 | 1035.9 |
| 20260503181004 | 53 | 332 | 1.0 | 4.0 | 0.00 | 0.00 | 0.00 | 85 | 1035.9 |
| 20260503180719 | 53 | 337 | 1.0 | 4.0 | 0.00 | 0.00 | 0.00 | 86 | 1035.9 |
| 20260503180004 | 53 | 321 | 1.0 | 4.0 | 0.00 | 0.00 | 0.00 | 86 | 1035.9 |
| 20260503175504 | 53 | 324 | 1.0 | 3.0 | 0.00 | 0.00 | 0.00 | 86 | 1035.8 |
| 20260503175004 | 53 | 340 | 1.0 | 5.0 | 0.00 | 0.00 | 0.00 | 86 | 1035.9 |
| 20260503174504 | 53 | 341 | 1.0 | 5.0 | 0.00 | 0.00 | 0.00 | 86 | 1035.9 |
| 20260503174004 | 53 | 329 | 0.0 | 3.0 | 0.00 | 0.00 | 0.00 | 86 | 1035.9 |
| 20260503173504 | 52 | 320 | 0.0 | 3.0 | 0.00 | 0.00 | 0.00 | 86 | 1035.9 |
| 20260503173005 | 52 | 303 | 0.0 | 4.0 | 0.00 | 0.00 | 0.00 | 86 | 1035.9 |
| 20260503172504 | 52 | 305 | 0.0 | 4.0 | 0.00 | 0.00 | 0.00 | 86 | 1035.9 |
| 20260503172004 | 52 | 327 | 0.0 | 2.0 | 0.00 | 0.00 | 0.00 | 86 | 1035.9 |
| 20260503171504 | 52 | 323 | 0.0 | 2.0 | 0.00 | 0.00 | 0.00 | 86 | 1035.9 |
| 20260503171004 | 52 | 331 | 0.0 | 3.0 | 0.00 | 0.00 | 0.00 | 86 | 1035.9 |
| 20260503170719 | 52 | 340 | 1.0 | 3.0 | 0.00 | 0.00 | 0.00 | 86 | 1036.0 |
| 20260503170218 | 52 | 337 | 1.0 | 4.0 | 0.00 | 0.00 | 0.00 | 86 | 1036.0 |
| 20260503151004 | 50 | 347 | 1.0 | 6.0 | 0.00 | 0.00 | 0.00 | 90 | 1036.2 |
| 20260503150504 | 50 | 4 | 0.0 | 4.0 | 0.00 | 0.00 | 0.00 | 89 | 1036.2 |
| 20260503131218 | 49 | 29 | 1.0 | 3.0 | 0.00 | 0.00 | 0.00 | 89 | 1036.4 |
| 20260503130504 | 49 | 41 | 1.0 | 3.0 | 0.00 | 0.00 | 0.00 | 89 | 1036.3 |
| 20260503110504 | 49 | 49 | 0.0 | 2.0 | 0.00 | 0.00 | 0.00 | 90 | 1035.8 |
| 20260503090504 | 47 | 0 | 0.0 | 0.0 | 0.00 | 0.00 | 0.00 | 88 | 1035.2 |
| 20260503081504 | 49 | 0 | 0.0 | 0.0 | 0.00 | 0.00 | 0.00 | 87 | 1035.1 |
| 20260503081004 | 49 | 0 | 0.0 | 0.0 | 0.00 | 0.00 | 0.00 | 87 | 1035.1 |
| 20260503080504 | 49 | 0 | 0.0 | 0.0 | 0.00 | 0.00 | 0.00 | 87 | 1035.1 |
| 20260503072505 | 49 | 0 | 0.0 | 0.0 | 0.00 | 0.00 | 0.00 | 85 | 1035.1 |
| 20260503072004 | 49 | 0 | 0.0 | 0.0 | 0.00 | 0.00 | 0.00 | 85 | 1035.1 |
| 20260503071504 | 49 | 0 | 0.0 | 1.0 | 0.00 | 0.00 | 0.00 | 84 | 1035.1 |
| 20260503071005 | 49 | 0 | 0.0 | 1.0 | 0.00 | 0.00 | 0.00 | 84 | 1035.1 |
| 20260503070504 | 50 | 0 | 0.0 | 0.0 | 0.00 | 0.00 | 0.00 | 82 | 1035.1 |
| 20260503055004 | 54 | 0 | 0.0 | 1.0 | 0.00 | 0.00 | 0.00 | 76 | 1034.9 |
| 20260503054718 | 54 | 0 | 0.0 | 1.0 | 0.00 | 0.00 | 0.00 | 76 | 1034.9 |
| 20260503054004 | 55 | 270 | 0.0 | 2.0 | 0.00 | 0.00 | 0.00 | 76 | 1034.8 |
| 20260503053504 | 55 | 270 | 0.0 | 2.0 | 0.00 | 0.00 | 0.00 | 76 | 1034.8 |
| 20260503053004 | 56 | 269 | 0.0 | 4.0 | 0.00 | 0.00 | 0.00 | 75 | 1034.8 |
| 20260503052504 | 56 | 268 | 1.0 | 4.0 | 0.00 | 0.00 | 0.00 | 75 | 1034.8 |
| 20260503052004 | 56 | 268 | 2.0 | 5.0 | 0.00 | 0.00 | 0.00 | 75 | 1034.8 |
| 20260503051504 | 57 | 266 | 3.0 | 5.0 | 0.00 | 0.00 | 0.00 | 74 | 1034.7 |
| 20260503051004 | 57 | 266 | 3.0 | 6.0 | 0.00 | 0.00 | 0.00 | 74 | 1034.7 |
| 20260503050504 | 57 | 265 | 3.0 | 6.0 | 0.00 | 0.00 | 0.00 | 73 | 1034.7 |
| 20260503050005 | 58 | 263 | 3.0 | 7.0 | 0.00 | 0.00 | 0.00 | 73 | 1034.7 |
| 20260503045505 | 58 | 267 | 3.0 | 7.0 | 0.00 | 0.00 | 0.00 | 73 | 1034.7 |
| 20260503045219 | 58 | 267 | 3.0 | 7.0 | 0.00 | 0.00 | 0.00 | 72 | 1034.7 |
| 20260503044718 | 58 | 272 | 4.0 | 8.0 | 0.00 | 0.00 | 0.00 | 72 | 1034.7 |
| 20260503044005 | 58 | 274 | 4.0 | 12.0 | 0.00 | 0.00 | 0.00 | 72 | 1034.7 |
| 20260503043504 | 58 | 274 | 4.0 | 9.0 | 0.00 | 0.00 | 0.00 | 71 | 1034.6 |
| 20260503043004 | 59 | 275 | 4.0 | 9.0 | 0.00 | 0.00 | 0.00 | 71 | 1034.6 |
| 20260503042504 | 59 | 278 | 4.0 | 9.0 | 0.00 | 0.00 | 0.00 | 70 | 1034.6 |
| 20260503042004 | 59 | 270 | 4.0 | 11.0 | 0.00 | 0.00 | 0.00 | 70 | 1034.6 |
| 20260503041504 | 60 | 268 | 4.0 | 11.0 | 0.00 | 0.00 | 0.00 | 69 | 1034.5 |
| 20260503041219 | 60 | 270 | 4.0 | 11.0 | 0.00 | 0.00 | 0.00 | 69 | 1034.5 |
| 20260503040504 | 60 | 265 | 4.0 | 10.0 | 0.00 | 0.00 | 0.00 | 68 | 1034.5 |
| 20260503040005 | 61 | 268 | 4.0 | 10.0 | 0.00 | 0.00 | 0.00 | 66 | 1034.4 |
| 20260503035504 | 64 | 270 | 3.0 | 6.0 | 0.00 | 0.00 | 0.00 | 63 | 1034.4 |
| 20260503035004 | 64 | 267 | 3.0 | 7.0 | 0.00 | 0.00 | 0.00 | 61 | 1034.4 |
| 20260503034504 | 65 | 272 | 3.0 | 7.0 | 0.00 | 0.00 | 0.00 | 60 | 1034.4 |
| 20260503034004 | 66 | 279 | 2.0 | 9.0 | 0.00 | 0.00 | 0.00 | 59 | 1034.4 |
| 20260503033504 | 66 | 286 | 3.0 | 9.0 | 0.00 | 0.00 | 0.00 | 58 | 1034.4 |
| 20260503033219 | 66 | 288 | 3.0 | 6.0 | 0.00 | 0.00 | 0.00 | 59 | 1034.4 |
| 20260503032504 | 66 | 276 | 2.0 | 9.0 | 0.00 | 0.00 | 0.00 | 59 | 1034.4 |
| 20260503032004 | 67 | 268 | 2.0 | 7.0 | 0.00 | 0.00 | 0.00 | 57 | 1034.5 |
| 20260503031504 | 65 | 279 | 3.0 | 7.0 | 0.00 | 0.00 | 0.00 | 59 | 1034.5 |
| 20260503031004 | 64 | 285 | 3.0 | 6.0 | 0.00 | 0.00 | 0.00 | 61 | 1034.5 |
| 20260503030504 | 63 | 274 | 4.0 | 10.0 | 0.00 | 0.00 | 0.00 | 63 | 1034.5 |
| 20260503030004 | 63 | 272 | 4.0 | 10.0 | 0.00 | 0.00 | 0.00 | 63 | 1034.5 |
| 20260503025719 | 62 | 269 | 4.0 | 10.0 | 0.00 | 0.00 | 0.00 | 65 | 1034.5 |
| 20260503025004 | 61 | 271 | 3.0 | 8.0 | 0.00 | 0.00 | 0.00 | 67 | 1034.5 |
| 20260503024504 | 61 | 262 | 4.0 | 10.0 | 0.00 | 0.00 | 0.00 | 67 | 1034.5 |
| 20260503024004 | 60 | 267 | 4.0 | 10.0 | 0.00 | 0.00 | 0.00 | 67 | 1034.5 |
| 20260503023504 | 60 | 264 | 4.0 | 10.0 | 0.00 | 0.00 | 0.00 | 68 | 1034.6 |
| 20260503023004 | 60 | 266 | 4.0 | 10.0 | 0.00 | 0.00 | 0.00 | 67 | 1034.6 |
| 20260503022504 | 61 | 272 | 3.0 | 8.0 | 0.00 | 0.00 | 0.00 | 68 | 1034.6 |
| 20260503022004 | 61 | 271 | 3.0 | 8.0 | 0.00 | 0.00 | 0.00 | 67 | 1034.6 |
| 20260503021719 | 60 | 278 | 3.0 | 8.0 | 0.00 | 0.00 | 0.00 | 69 | 1034.7 |
| 20260503021004 | 60 | 273 | 3.0 | 9.0 | 0.00 | 0.00 | 0.00 | 69 | 1034.7 |